Regional Weather Roundup
Issued by NWS

Home | Current Version | Previous Version | Text Only | Print | Product List | Glossary On
Versions: 1 2 3 4 5 6 7 8 9 10 11 12 13 14 15 16 17 18 19 20 21 22 23 24 25 26 27 28 29 30 31 32 33 34 35 36 37 38 39 40 41 42 43 44 45 46 47 48 49 50
000
ASUS45 KREV 231410
RWRNV
NEVADA REGIONAL WEATHER ROUNDUP
NATIONAL WEATHER SERVICE RENO NV
700 AM PDT WED JUL 23 2014

NOTE: "FAIR" INDICATES FEW OR NO CLOUDS BELOW 12,000 FEET WITH NO
SIGNIFICANT WEATHER AND/OR OBSTRUCTIONS TO VISIBILITY.

NVZ001-003-004-231500-
WESTERN NEVADA

CITY           SKY/WX    TMP DP  RH WIND       PRES   REMARKS
RENO           MOSUNNY   63  48  58 E3        30.17S
CARSON CITY    FAIR      61  41  48 NE3       30.20R
SLIDE MTN        N/A     45  36  70 SW31        N/A
PYRAMID LAKE     N/A     66 N/A N/A W3          N/A
FALLON         PTSUNNY   62  46  55 SE3       30.13S
LOVELOCK       PTSUNNY   57  44  62 CALM      30.14R
HAWTHORNE      SUNNY     70  45  40 CALM      30.16R
$$

NVZ002-CAZ072-073-231500-
NORTHERN AND CENTRAL SIERRA

CITY           SKY/WX    TMP DP  RH WIND       PRES   REMARKS
S. LAKE TAHOE  MOSUNNY   59  38  45 VRB6      30.27S
TRUCKEE        MOSUNNY   61  37  41 SW10      30.26S
SQUAW VLY 8000 NOT AVBL
BLUE CANYON    SUNNY     59  49  69 SE10      30.26R
MAMMOTH LAKES  FAIR      45  32  61 CALM      30.35S
BRIDGEPORT     FAIR      53  34  48 VRB3      30.30S
$$

NVZ030-031-036-231500-
NORTHERN NEVADA

CITY           SKY/WX    TMP DP  RH WIND       PRES   REMARKS
ELKO           SUNNY     62  43  49 CALM      30.19R
WINNEMUCCA     PTSUNNY   58  44  60 CALM      30.16R
WENDOVER       SUNNY     73  28  19 NE5       30.13R
$$

NVZ035-037-231500-
CENTRAL NEVADA

CITY           SKY/WX    TMP DP  RH WIND       PRES   REMARKS
ELY            SUNNY     58  22  24 S9        30.30R
EUREKA           N/A     65  25  22 SW6       30.25R
$$

NVZ013-014-231500-
SOUTH CENTRAL NEVADA

CITY           SKY/WX    TMP DP  RH WIND       PRES   REMARKS
TONOPAH        SUNNY     63  25  23 N10       30.23R
$$

NVZ017-020-022-231500-
SOUTHERN NEVADA

CITY           SKY/WX    TMP DP  RH WIND       PRES   REMARKS
LAS VEGAS      SUNNY     86  31  13 S6        29.96R
N. LAS VEGAS   SUNNY     83  31  15 CALM      29.99R
NELLIS AFB     NOT AVBL
HENDERSON      SUNNY     84  31  15 SW12      30.03R
MERCURY        NOT AVBL
$$



USA.gov is the U.S. government's official web portal to all federal, state and local government web resources and services.